Location: Baili�vre
(50.0696°N, 4.2409°E)
Time: 17:03:53
(UTC+00:00)

Genesis I - Pass Details

Date: 08 August 2020
Orbit: 504 x 518 km, 64.5° (Epoch: 24 September)

Event Time Altitude Azimuth Distance (km) Brightness Sun altitude
Rises 20:42:05 0° 319° (NW) 2,623 8.9 -12.4°
Reaches altitude 10° 20:44:15 10° 321° (NW) 1,736 7.4 -12.7°
Maximum altitude 20:48:09 81° 50° (NE) 524 3.1 -13.1°
Enters shadow 20:50:28 23° 134° (SE) 1,123 4.3 -13.4°
